Weather History for KBIV - March, 2014

Change the Weather History Date:

Saturday, March 15, 2014

  Actual Average Record
Temperature  
Mean Temperature 32 °F 36 °F  
Max Temperature 38 °F 44 °F 76 °F (1990)
Min Temperature 25 °F 28 °F 2 °F (1970)
Degree Days  
Heating Degree Days 33 29  
Month to date heating degree days 623 465  
Since 1 July heating degree days 5781 4965  
Cooling Degree Days 0 0  
Month to date cooling degree days 0 0  
Year to date cooling degree days 0 0  
Moisture  
Dew Point 22 °F    
Average Humidity 64    
Maximum Humidity 82    
Minimum Humidity 46    
Precipitation  
Precipitation 0.00 in 0.08 in 1.17 in (1959)
Month to date precipitation 0.32 1.18  
Year to date precipitation 4.28 5.07  
Sea Level Pressure  
Sea Level Pressure 30.05 in    
Wind  
Wind Speed 9 mph (NW)    
Max Wind Speed 21 mph    
Max Gust Speed 26 mph    
Visibility 10 miles    
Events      
T = Trace of Precipitation, MM = Missing Value Source: NWS Daily Summary

Daily Weather History Graph

Daily Weather History Graph

Search for Another Location

Airport or City:

Trip Planner

Search our weather history database for the weather conditions in past years. The results will help you decide how hot, cold, wet, or windy it might be!

Date:

Astronomy

Mar. 15, 2014 Rise Set
Actual Time 7:56 AM EDT 7:50 PM EDT
Civil Twilight 7:28 AM EDT 8:18 PM EDT
Nautical Twilight 6:55 AM EDT 8:51 PM EDT
Astronomical Twilight 6:22 AM EDT 9:25 PM EDT
Moon 7:09 PM EDT (3/15) 7:08 AM EDT (3/15)
Length of Visible Light 12h 50m
Length of Day
11h 54m
Waxing Gibbous, 99% of the Moon is Illuminated
Mar 15
Waxing Gibbous
Mar 16
Full
Mar 23
Last Quarter
Mar 30
New
Apr 7
First Quarter

Hourly Weather History & Observations

Time (EDT) Temp. Windchill Dew Point Humidity Pressure Visibility Wind Dir Wind Speed Gust Speed Precip Events Conditions
12:53 AM 36.0 °F 26.0 °F 30.9 °F 82% 29.78 in 10.0 mi WSW 17.3 mph - N/A   Overcast
1:53 AM 36.0 °F 26.7 °F 30.9 °F 82% 29.78 in 10.0 mi West 15.0 mph - N/A   Mostly Cloudy
2:53 AM 37.0 °F 28.5 °F 30.0 °F 76% 29.80 in 10.0 mi West 13.8 mph - N/A   Overcast
3:53 AM 37.0 °F 28.1 °F 28.9 °F 73% 29.83 in 10.0 mi West 15.0 mph - N/A   Overcast
4:53 AM 36.0 °F 28.0 °F 28.0 °F 73% 29.85 in 10.0 mi West 11.5 mph 21.9 mph N/A   Overcast
5:53 AM 35.1 °F 27.4 °F 28.0 °F 76% 29.88 in 10.0 mi WNW 10.4 mph - N/A   Overcast
6:11 AM 35.1 °F 27.9 °F 28.9 °F 78% 29.87 in 10.0 mi NW 9.2 mph - N/A   Overcast
6:53 AM 34.0 °F 26.6 °F 28.0 °F 79% 29.91 in 10.0 mi NW 9.2 mph - N/A   Overcast
7:38 AM 33.1 °F 24.9 °F 25.0 °F 72% 29.94 in 10.0 mi NW 10.4 mph - N/A   Overcast
7:53 AM 33.1 °F 26.1 °F 25.0 °F 72% 29.96 in 10.0 mi NW 8.1 mph - N/A   Overcast
8:53 AM 32.0 °F 24.8 °F 21.9 °F 66% 30.01 in 10.0 mi NNW 8.1 mph - N/A   Overcast
9:53 AM 32.0 °F 26.4 °F 19.9 °F 61% 30.04 in 10.0 mi Variable 5.8 mph - N/A   Overcast
10:53 AM 33.1 °F 25.5 °F 19.9 °F 59% 30.08 in 10.0 mi NW 9.2 mph - N/A   Partly Cloudy
11:53 AM 34.0 °F 26.6 °F 21.0 °F 59% 30.09 in 10.0 mi NNW 9.2 mph - N/A   Clear
12:53 PM 34.0 °F 26.6 °F 19.9 °F 56% 30.12 in 10.0 mi NW 9.2 mph - N/A   Clear
1:53 PM 34.0 °F 26.0 °F 19.0 °F 54% 30.13 in 10.0 mi NNW 10.4 mph - N/A   Clear
2:53 PM 34.0 °F 27.2 °F 19.0 °F 54% 30.16 in 10.0 mi NW 8.1 mph - N/A   Scattered Clouds
3:53 PM 34.0 °F 26.0 °F 16.0 °F 48% 30.16 in 10.0 mi NW 10.4 mph 18.4 mph N/A   Mostly Cloudy
4:53 PM 33.1 °F 25.5 °F 18.0 °F 54% 30.18 in 10.0 mi NW 9.2 mph - N/A   Overcast
5:53 PM 32.0 °F 24.8 °F 18.0 °F 56% 30.19 in 10.0 mi NW 8.1 mph - N/A   Mostly Cloudy
6:53 PM 33.1 °F 26.9 °F 17.1 °F 52% 30.22 in 10.0 mi North 6.9 mph - N/A   Overcast
7:53 PM 32.0 °F 24.8 °F 16.0 °F 52% 30.23 in 10.0 mi North 8.1 mph - N/A   Overcast
8:53 PM 30.0 °F 22.4 °F 15.1 °F 54% 30.26 in 10.0 mi NNE 8.1 mph 18.4 mph N/A   Overcast
9:53 PM 28.9 °F 21.9 °F 14.0 °F 54% 30.28 in 10.0 mi NNE 6.9 mph - N/A   Overcast
10:53 PM 28.0 °F 21.7 °F 14.0 °F 56% 30.31 in 10.0 mi Variable 5.8 mph - N/A   Overcast
11:53 PM 27.0 °F 18.0 °F 9.0 °F 47% 30.34 in 10.0 mi North 9.2 mph - N/A   Overcast